| time (UTC) | temp F | wind direction | speed MPH | gust MPH | rain 1hr in | rain 24hr in | rain mn in | humidity % | barometer mb |
| 20260507064502 | 52 | 323 | 0.0 | 0.0 | 0.00 | 0.00 | 0.00 | 32 | 101.0 |
| 20260507063001 | 50 | 287 | 0.0 | 0.0 | 0.00 | 0.00 | 0.00 | 34 | 101.0 |
| 20260507061502 | 48 | 320 | 0.0 | 0.0 | 0.00 | 0.00 | 0.00 | 34 | 101.0 |
| 20260507060001 | 48 | 67 | 0.0 | 0.0 | 0.00 | 0.00 | 0.00 | 35 | 101.0 |
| 20260507054501 | 46 | 311 | 0.0 | 0.0 | 0.00 | 0.00 | 0.00 | 37 | 101.0 |
| 20260507053000 | 43 | 33 | 0.0 | 0.0 | 0.00 | 0.00 | 0.00 | 40 | 101.0 |
| 20260507051500 | 43 | 142 | 0.0 | 0.0 | 0.00 | 0.00 | 0.00 | 46 | 101.0 |
| 20260507050005 | 41 | 218 | 0.0 | 0.0 | 0.00 | 0.00 | 0.00 | 51 | 101.0 |
| 20260507044504 | 37 | 173 | 0.0 | 0.0 | 0.00 | 0.00 | 0.00 | 56 | 101.0 |
| 20260507043003 | 37 | 124 | 0.0 | 0.0 | 0.00 | 0.00 | 0.00 | 57 | 101.0 |
| 20260507041503 | 36 | 142 | 0.0 | 0.0 | 0.00 | 0.00 | 0.00 | 60 | 101.0 |
| 20260507040002 | 34 | 230 | 0.0 | 0.0 | 0.00 | 0.00 | 0.00 | 65 | 101.0 |
| 20260507034501 | 0 | 218 | 0.0 | 0.0 | 0.00 | 0.00 | 0.00 | 65 | 101.0 |
| 20260507033001 | 0 | 135 | 0.0 | 0.0 | 0.00 | 0.00 | 0.00 | 66 | 101.0 |
| 20260507031504 | 31 | 124 | 0.0 | 0.0 | 0.00 | 0.00 | 0.00 | 72 | 101.0 |
| 20260507030004 | 31 | 124 | 0.0 | 0.0 | 0.00 | 0.00 | 0.00 | 72 | 101.0 |
| 20260507024503 | 31 | 122 | 0.0 | 0.0 | 0.00 | 0.00 | 0.00 | 73 | 101.0 |
| 20260507023002 | 31 | 129 | 0.0 | 0.0 | 0.00 | 0.00 | 0.00 | 73 | 101.0 |
| 20260507021501 | 31 | 309 | 0.0 | 0.0 | 0.00 | 0.00 | 0.00 | 74 | 101.0 |
| 20260507020000 | 31 | 50 | 0.0 | 0.0 | 0.00 | 0.00 | 0.00 | 75 | 101.0 |
| 20260507014504 | 31 | 224 | 0.0 | 0.0 | 0.00 | 0.00 | 0.00 | 74 | 101.0 |
| 20260507013003 | 31 | 235 | 0.0 | 0.0 | 0.00 | 0.00 | 0.00 | 76 | 101.0 |
| 20260507011503 | 32 | 336 | 0.0 | 0.0 | 0.00 | 0.00 | 0.00 | 78 | 101.0 |
| 20260507010002 | 32 | 157 | 0.0 | 0.0 | 0.00 | 0.00 | 0.00 | 77 | 101.0 |
| 20260507004501 | 32 | 145 | 0.0 | 0.0 | 0.00 | 0.00 | 0.00 | 79 | 101.0 |
| 20260507003005 | 32 | 335 | 0.0 | 0.0 | 0.00 | 0.00 | 0.00 | 77 | 101.0 |
| 20260507001504 | 0 | 148 | 0.0 | 0.0 | 0.00 | 0.00 | 0.00 | 78 | 101.0 |
| 20260507000004 | 32 | 124 | 0.0 | 0.0 | 0.00 | 0.00 | 0.00 | 81 | 101.0 |
| 20260506234503 | 33 | 240 | 0.0 | 0.0 | 0.00 | 0.00 | 0.00 | 79 | 101.0 |
| 20260506233002 | 33 | 157 | 0.0 | 0.0 | 0.00 | 0.00 | 0.00 | 80 | 101.0 |
| 20260506231501 | 34 | 50 | 0.0 | 0.0 | 0.00 | 0.00 | 0.00 | 81 | 101.0 |
| 20260506230005 | 34 | 156 | 0.0 | 0.0 | 0.00 | 0.00 | 0.00 | 79 | 101.0 |
| 20260506224504 | 34 | 124 | 0.0 | 0.0 | 0.00 | 0.00 | 0.00 | 83 | 101.0 |
| 20260506223003 | 34 | 293 | 0.0 | 0.0 | 0.00 | 0.00 | 0.00 | 80 | 101.0 |
| 20260506221502 | 36 | 147 | 0.0 | 0.0 | 0.00 | 0.00 | 0.00 | 78 | 101.0 |
| 20260506220001 | 36 | 173 | 0.0 | 0.0 | 0.00 | 0.00 | 0.00 | 80 | 101.0 |
| 20260506214501 | 36 | 230 | 0.0 | 0.0 | 0.00 | 0.00 | 0.00 | 77 | 101.0 |
| 20260506213004 | 36 | 142 | 0.0 | 0.0 | 0.00 | 0.00 | 0.00 | 76 | 101.0 |
| 20260506211504 | 38 | 322 | 0.0 | 0.0 | 0.00 | 0.00 | 0.00 | 76 | 101.0 |
| 20260506210003 | 38 | 142 | 0.0 | 0.0 | 0.00 | 0.00 | 0.00 | 75 | 101.0 |
| 20260506204502 | 38 | 217 | 0.0 | 0.0 | 0.00 | 0.00 | 0.00 | 72 | 101.0 |
| 20260506203001 | 39 | 322 | 0.0 | 0.0 | 0.00 | 0.00 | 0.00 | 72 | 101.0 |
| 20260506201500 | 39 | 141 | 0.0 | 0.0 | 0.00 | 0.00 | 0.00 | 72 | 101.0 |
| 20260506200004 | 39 | 66 | 0.0 | 0.0 | 0.00 | 0.00 | 0.00 | 69 | 101.0 |
| 20260506194503 | 41 | 44 | 0.0 | 0.0 | 0.00 | 0.00 | 0.00 | 66 | 101.0 |
| 20260506193003 | 41 | 192 | 0.0 | 0.0 | 0.00 | 0.00 | 0.00 | 64 | 101.0 |
| 20260506191502 | 43 | 124 | 0.0 | 0.0 | 0.00 | 0.00 | 0.00 | 61 | 101.0 |
| 20260506190002 | 45 | 202 | 0.0 | 0.0 | 0.00 | 0.00 | 0.00 | 60 | 101.0 |
| 20260506184501 | 45 | 29 | 0.0 | 0.0 | 0.00 | 0.00 | 0.00 | 58 | 101.0 |
| 20260506183005 | 47 | 269 | 0.0 | 0.0 | 0.00 | 0.00 | 0.00 | 55 | 101.0 |
| 20260506181504 | 48 | 62 | 0.0 | 0.0 | 0.00 | 0.00 | 0.00 | 50 | 101.0 |
| 20260506180004 | 48 | 322 | 0.0 | 0.0 | 0.00 | 0.00 | 0.00 | 46 | 101.0 |
| 20260506174503 | 48 | 44 | 0.0 | 0.0 | 0.00 | 0.00 | 0.00 | 44 | 101.0 |
| 20260506173003 | 50 | 200 | 0.0 | 0.0 | 0.00 | 0.00 | 0.00 | 43 | 101.0 |
| 20260506171502 | 50 | 214 | 0.0 | 0.0 | 0.00 | 0.00 | 0.00 | 42 | 101.0 |
| 20260506170002 | 50 | 162 | 0.0 | 0.0 | 0.00 | 0.00 | 0.00 | 41 | 101.0 |
| 20260506164502 | 50 | 135 | 0.0 | 0.0 | 0.00 | 0.00 | 0.00 | 42 | 101.0 |
| 20260506163002 | 51 | 152 | 0.0 | 0.0 | 0.00 | 0.00 | 0.00 | 41 | 101.0 |
| 20260506161502 | 51 | 289 | 0.0 | 0.0 | 0.00 | 0.00 | 0.00 | 41 | 101.0 |
| 20260506160002 | 51 | 132 | 0.0 | 0.0 | 0.00 | 0.00 | 0.00 | 41 | 101.0 |
| 20260506154502 | 51 | 206 | 0.0 | 0.0 | 0.00 | 0.00 | 0.00 | 41 | 101.0 |
| 20260506153001 | 51 | 160 | 0.0 | 0.0 | 0.00 | 0.00 | 0.00 | 39 | 101.0 |
| 20260506151501 | 51 | 171 | 0.0 | 0.0 | 0.00 | 0.00 | 0.00 | 39 | 101.0 |
| 20260506150002 | 51 | 240 | 0.0 | 0.0 | 0.00 | 0.00 | 0.00 | 39 | 101.0 |
| 20260506144501 | 51 | 177 | 0.0 | 0.0 | 0.00 | 0.00 | 0.00 | 40 | 101.0 |
| 20260506143001 | 52 | 152 | 0.0 | 0.0 | 0.00 | 0.00 | 0.00 | 39 | 101.0 |
| 20260506141501 | 52 | 116 | 0.0 | 0.0 | 0.00 | 0.00 | 0.00 | 35 | 101.0 |
| 20260506140001 | 52 | 168 | 0.0 | 0.0 | 0.00 | 0.00 | 0.00 | 38 | 101.0 |
| 20260506134501 | 52 | 187 | 0.0 | 0.0 | 0.00 | 0.00 | 0.00 | 36 | 101.0 |
| 20260506133001 | 52 | 221 | 0.0 | 0.0 | 0.00 | 0.00 | 0.00 | 38 | 101.0 |
| 20260506131500 | 52 | 162 | 0.0 | 0.0 | 0.00 | 0.00 | 0.00 | 37 | 101.0 |
| 20260506130000 | 52 | 172 | 0.0 | 0.0 | 0.00 | 0.00 | 0.00 | 37 | 101.0 |
| 20260506124505 | 52 | 117 | 0.0 | 0.0 | 0.00 | 0.00 | 0.00 | 39 | 101.0 |
| 20260506123005 | 52 | 17 | 0.0 | 0.0 | 0.00 | 0.00 | 0.00 | 39 | 101.0 |
| 20260506121504 | 52 | 123 | 0.0 | 0.0 | 0.00 | 0.00 | 0.00 | 37 | 101.0 |
| 20260506120005 | 50 | 155 | 0.0 | 0.0 | 0.00 | 0.00 | 0.00 | 39 | 101.0 |
| 20260506114504 | 52 | 133 | 0.0 | 0.0 | 0.00 | 0.00 | 0.00 | 39 | 101.0 |
| 20260506113004 | 54 | 215 | 0.0 | 0.0 | 0.00 | 0.00 | 0.00 | 35 | 101.0 |
| 20260506111504 | 54 | 217 | 0.0 | 0.0 | 0.00 | 0.00 | 0.00 | 32 | 101.0 |
| 20260506110004 | 55 | 170 | 0.0 | 0.0 | 0.00 | 0.00 | 0.00 | 25 | 101.0 |
| 20260506104504 | 55 | 355 | 0.0 | 0.0 | 0.00 | 0.00 | 0.00 | 25 | 101.0 |
| 20260506103004 | 55 | 126 | 0.0 | 0.0 | 0.00 | 0.00 | 0.00 | 26 | 101.0 |
| 20260506101503 | 54 | 312 | 0.0 | 0.0 | 0.00 | 0.00 | 0.00 | 28 | 101.0 |
| 20260506100004 | 54 | 67 | 0.0 | 0.0 | 0.00 | 0.00 | 0.00 | 27 | 101.0 |
| 20260506094503 | 52 | 104 | 0.0 | 0.0 | 0.00 | 0.00 | 0.00 | 33 | 101.0 |
| 20260506093003 | 52 | 141 | 0.0 | 0.0 | 0.00 | 0.00 | 0.00 | 30 | 101.0 |
| 20260506091503 | 52 | 319 | 0.0 | 0.0 | 0.00 | 0.00 | 0.00 | 33 | 101.0 |
| 20260506090003 | 52 | 70 | 0.0 | 0.0 | 0.00 | 0.00 | 0.00 | 31 | 101.0 |
| 20260506084502 | 54 | 42 | 0.0 | 0.0 | 0.00 | 0.00 | 0.00 | 31 | 101.0 |
| 20260506083002 | 54 | 319 | 0.0 | 0.0 | 0.00 | 0.00 | 0.00 | 30 | 101.0 |
| 20260506081502 | 54 | 357 | 0.0 | 0.0 | 0.00 | 0.00 | 0.00 | 29 | 101.0 |
| 20260506073002 | 50 | 302 | 0.0 | 0.0 | 0.00 | 0.00 | 0.00 | 42 | 101.0 |
| 20260506071502 | 50 | 55 | 0.0 | 0.0 | 0.00 | 0.00 | 0.00 | 42 | 101.0 |